Hickory, NC

6:33 AM EDT on September 27, 2016 (GMT -0400)
Hickory Regional

Weather History for KHKY - February, 2014

Change the Weather History Date:

Wednesday, February 19, 2014

  Actual Average Record
Temperature  
Mean Temperature 58 °F -  
Max Temperature 73 °F 55 °F 73 °F (2014)
Min Temperature 42 °F 32 °F 9 °F (2015)
Degree Days  
Heating Degree Days 8    
Growing Degree Days 8 (Base 50)    
Moisture  
Dew Point 43 °F    
Average Humidity 71    
Maximum Humidity 97    
Minimum Humidity 27    
Precipitation  
Precipitation 0.07 in - - ()
Sea Level Pressure  
Sea Level Pressure 29.94 in    
Wind  
Wind Speed 3 mph (West)    
Max Wind Speed 13 mph    
Max Gust Speed 23 mph    
Visibility 8 miles    
Events Rain    
Averages and records for this station are not official NWS values.
T = Trace of Precipitation, MM = Missing Value Source: NWS Daily Summary

Daily Weather History Graph

Daily Weather History Graph

Search for Another Location

Airport or City:

Trip Planner

Search our weather history database for the weather conditions in past years. The results will help you decide how hot, cold, wet, or windy it might be!

Date:

Astronomy

Feb. 19, 2014 Rise Set
Actual Time 7:07 AM EST 6:11 PM EST
Civil Twilight 6:41 AM EST 6:37 PM EST
Nautical Twilight 6:12 AM EST 7:07 PM EST
Astronomical Twilight 5:42 AM EST 7:36 PM EST
Moon 10:52 PM EST (2/19) 9:23 AM EST (2/19)
Length of Visible Light 11h 55m
Length of Day
11h 03m
Waning Gibbous, 80% of the Moon is Illuminated
Feb 19
Waning Gibbous
Feb 22
Last Quarter
Mar 1
New
Mar 8
First Quarter
Mar 16
Full

Hourly Weather History & Observations

Time (EST) Temp. Windchill Dew Point Humidity Pressure Visibility Wind Dir Wind Speed Gust Speed Precip Events Conditions
12:53 AM 51.1 °F - 35.1 °F 54% 29.99 in 10.0 mi Calm Calm - N/A   Mostly Cloudy
1:53 AM 45.0 °F - 34.0 °F 65% 29.98 in 10.0 mi Calm Calm - 0.00 in Rain Light Rain
2:53 AM 45.0 °F 43.5 °F 37.9 °F 76% 29.94 in 10.0 mi North 3.5 mph - 0.01 in   Overcast
3:03 AM 44.6 °F - 37.4 °F 76% 29.97 in 10.0 mi Calm Calm - N/A   Overcast
3:19 AM 46.4 °F - 37.4 °F 71% 29.98 in 10.0 mi Calm Calm - N/A   Overcast
3:32 AM 46.4 °F - 39.2 °F 76% 29.97 in 10.0 mi Calm Calm - 0.00 in Rain Light Rain
3:49 AM 44.6 °F 43.1 °F 42.8 °F 93% 29.93 in 5.0 mi SE 3.5 mph - 0.04 in Rain Rain
3:53 AM 46.0 °F 43.9 °F 42.1 °F 86% 29.87 in 4.0 mi Variable 4.6 mph - 0.05 in Rain Rain
4:53 AM 46.0 °F 43.1 °F 44.1 °F 93% 29.91 in 9.0 mi WSW 5.8 mph - 0.00 in   Partly Cloudy
5:08 AM 46.4 °F 45.2 °F 44.6 °F 93% 29.95 in 8.0 mi West 3.5 mph - N/A   Mostly Cloudy
5:53 AM 43.0 °F - 41.0 °F 93% 29.91 in 5.0 mi Calm Calm - N/A   Scattered Clouds
6:08 AM 42.8 °F - 41.0 °F 93% 29.94 in 3.0 mi Calm Calm - N/A   Mostly Cloudy
6:53 AM 45.0 °F - 44.1 °F 97% 29.90 in 4.0 mi Calm Calm - N/A   Overcast
7:01 AM 44.6 °F - 42.8 °F 93% 29.93 in 3.0 mi Calm Calm - N/A   Overcast
7:22 AM 46.4 °F - 44.6 °F 93% 29.93 in 2.0 mi Calm Calm - 0.01 in Rain Light Rain
7:36 AM 46.4 °F - 44.6 °F 93% 29.94 in 3.0 mi Calm Calm - 0.01 in Rain Light Rain
7:48 AM 44.6 °F 40.7 °F 42.8 °F 93% 29.94 in 2.0 mi North 6.9 mph - 0.01 in Rain Light Rain
7:53 AM 43.0 °F 39.5 °F 41.0 °F 93% 29.92 in 2.5 mi North 5.8 mph - 0.01 in Rain Light Rain
8:01 AM 42.8 °F 39.3 °F 41.0 °F 93% 29.95 in 4.0 mi North 5.8 mph - 0.00 in Rain Light Rain
8:43 AM 44.6 °F 43.1 °F 42.8 °F 93% 29.97 in 6.0 mi North 3.5 mph - 0.00 in Rain Light Rain
8:53 AM 45.0 °F - 43.0 °F 93% 29.94 in 7.0 mi Calm Calm - 0.00 in Rain Light Rain
9:53 AM 48.9 °F - 45.0 °F 86% 29.93 in 10.0 mi Calm Calm - 0.00 in   Mostly Cloudy
10:07 AM 51.8 °F - 46.4 °F 82% 29.96 in 9.0 mi Calm Calm - N/A   Mostly Cloudy
10:53 AM 57.9 °F - 52.0 °F 81% 29.93 in 10.0 mi South 6.9 mph - N/A   Scattered Clouds
11:51 AM 64.4 °F - 55.4 °F 73% 29.95 in 10.0 mi SW 11.5 mph 19.6 mph N/A   Mostly Cloudy
11:53 AM 64.9 °F - 55.0 °F 70% 29.91 in 10.0 mi SW 12.7 mph 19.6 mph N/A   Mostly Cloudy
12:00 PM 66.2 °F - 55.4 °F 68% 29.95 in 10.0 mi SW 11.5 mph - N/A   Partly Cloudy
12:53 PM 69.1 °F - 54.0 °F 58% 29.89 in 10.0 mi SW 11.5 mph - N/A   Mostly Cloudy
1:53 PM 70.0 °F - 48.9 °F 47% 29.88 in 10.0 mi WSW 11.5 mph - N/A   Scattered Clouds
2:53 PM 72.0 °F - 48.0 °F 43% 29.88 in 10.0 mi West 8.1 mph 20.7 mph N/A   Clear
3:53 PM 73.9 °F - 37.9 °F 27% 29.89 in 10.0 mi West 12.7 mph 23.0 mph N/A   Clear
4:53 PM 72.0 °F - 37.9 °F 29% 29.91 in 10.0 mi WNW 10.4 mph - N/A   Clear
5:53 PM 68.0 °F - 37.0 °F 32% 29.94 in 10.0 mi WNW 5.8 mph - N/A   Clear
6:53 PM 64.9 °F - 37.9 °F 37% 29.96 in 10.0 mi WNW 5.8 mph - N/A   Clear
7:53 PM 63.0 °F - 39.0 °F 41% 29.99 in 10.0 mi WNW 4.6 mph - N/A   Clear
8:53 PM 60.1 °F - 39.0 °F 46% 30.01 in 10.0 mi Calm Calm - N/A   Clear
9:53 PM 62.1 °F - 39.0 °F 43% 30.01 in 10.0 mi Calm Calm - N/A   Clear
10:53 PM 57.9 °F - 39.9 °F 51% 30.01 in 10.0 mi Calm Calm - N/A   Clear
11:53 PM 57.0 °F - 39.9 °F 53% 30.02 in 10.0 mi Calm Calm - N/A   Clear